[[{"header":{"parameterUnit":"m.s-1","parameterCategory":1,"la1":30.2991,"la2":30.254,"lo1":-89.0895,"lo2":-89.0444,"dy":0.0017,"dx":0.0017,"nx":28,"ny":28,"refTime":"2025-01-24T09:00:00:Z","depth":0,"parameterNumber":2,"parameterNumberName":"U-component_of_WINDS"},"data":[0,0,0,0,0,0,0,0,0,0,0,0,0,0,0,0,0,0,0,0,0,0,0,0,0,0,0,0,0,0,0,0,0,0,0,0,0,0,0,0,0,0,0,0,0,0,0,0,0,0,0,0,0,0,0,0,0,0,-3.199,-3.199,0,-3.1981,-3.198,-3.198,-3.1964,-3.1964,-3.1964,-3.1964,-3.1951,-3.1951,-3.1951,0,0,0,0,0,0,0,0,0,0,0,0,0,-3.1989,-3.1989,-3.199,-3.199,-3.199,-3.1981,-3.198,-3.198,-3.1964,-3.1964,-3.1964,-3.1963,-3.1951,-3.1951,-3.1951,0,0,0,0,0,0,0,0,0,0,0,0,0,-3.1985,-3.1989,-3.199,-3.1981,-3.198,-3.1981,-3.198,-3.198,-3.1964,-3.1964,-3.1964,-3.1963,-3.1951,-3.1951,-3.1951,-3.196,0,0,-3.1951,-3.1951,0,0,0,0,0,0,0,0,-3.1986,-3.1986,-3.1982,-3.1981,-3.198,-3.1973,-3.1976,-3.1973,-3.1965,-3.197,-3.1963,-3.1963,-3.1959,-3.1958,-3.1957,-3.1959,-3.1958,-3.1951,-3.1951,-3.1951,-3.1951,0,0,0,0,0,0,0,-3.1986,-3.1986,-3.1986,-3.1982,-3.1981,-3.1975,-3.1974,-3.1975,-3.1967,-3.197,-3.1969,-3.1968,-3.1958,-3.1957,-3.1957,-3.1958,-3.1951,-3.1951,-3.1951,-3.1951,-3.1962,-3.1962,0,0,0,0,0,0,-3.1988,-3.1986,-3.1987,-3.1986,-3.1982,-3.1976,-3.1975,-3.1976,-3.1967,-3.1965,-3.1968,-3.1967,-3.1958,-3.1957,-3.1956,-3.1963,-3.1951,-3.1951,-3.1951,-3.1961,-3.1962,-3.1962,0,0,0,0,0,0,-3.1988,-3.1988,-3.1987,-3.1986,-3.1985,-3.1976,-3.1978,-3.1976,-3.1975,-3.1966,-3.1964,-3.1969,-3.1957,-3.1956,-3.1958,-3.1962,-3.1951,-3.1951,-3.1961,-3.1961,-3.1962,-3.1977,0,0,0,0,0,0,-3.1988,-3.1988,-3.1993,-3.1986,-3.1985,-3.199,-3.1978,-3.1976,-3.1975,-3.1974,-3.1966,-3.1964,-3.1957,-3.1958,-3.1958,-3.1962,-3.1951,-3.196,-3.1961,-3.1962,-3.1976,-3.1978,-3.198,0,0,0,0,0,-3.1988,-3.1998,-3.1993,-3.1994,-3.1991,-3.1991,-3.199,-3.1982,-3.1976,-3.1979,-3.1972,-3.1965,-3.1962,-3.1959,-3.1958,-3.1962,-3.196,-3.1961,-3.1962,-3.1976,-3.1978,-3.198,0,0,0,0,0,0,-3.2006,-3.1997,-3.1992,-3.2,-3.1996,-3.1988,-3.1992,-3.1985,-3.1983,-3.1981,-3.197,-3.1969,-3.1971,-3.1967,-3.1963,-3.1967,-3.1959,-3.196,-3.197,-3.1972,-3.1974,-3.1975,-3.1951,0,0,0,0,0,-3.2011,-3.2013,-3.2005,-3.2012,-3.2011,-3.2002,-3.2001,-3.1995,-3.199,-3.1989,-3.1982,-3.1977,-3.1974,-3.1973,-3.1971,-3.1975,-3.1972,-3.1978,-3.1979,-3.1981,-3.1981,-3.198,-3.1982,-3.1965,-3.1964,-3.1964,0,0,-3.2021,-3.2016,-3.2018,-3.2016,-3.2012,-3.2012,-3.2001,-3.2002,-3.2001,-3.1989,-3.1989,-3.1984,-3.1977,-3.198,-3.198,-3.1976,-3.1985,-3.1982,-3.1983,-3.1983,-3.1981,-3.1983,-3.1984,-3.1965,-3.1965,-3.1965,0,0,-3.2039,-3.2037,-3.2042,-3.2038,-3.2032,-3.2026,-3.2026,-3.2019,-3.2015,-3.2015,-3.2004,-3.2003,-3.2,-3.1994,-3.1991,-3.2003,-3.1995,-3.2002,-3.2011,-3.201,-3.2012,-3.2013,-3.2015,-3.2016,-3.2003,-3.2003,-3.2003,0,-3.2052,-3.2054,-3.2045,-3.2046,-3.2044,-3.2032,-3.2035,-3.2031,-3.2025,-3.2022,-3.2018,-3.2011,-3.2006,-3.2005,-3.2008,-3.2007,-3.2005,-3.2003,-3.2012,-3.2013,-3.2014,-3.2016,-3.2017,-3.2004,-3.2004,-3.2003,-3.2003,0,-3.2068,-3.2069,-3.2073,-3.2067,-3.2065,-3.2067,-3.2057,-3.2055,-3.2048,-3.2041,-3.204,-3.2033,-3.2027,-3.2027,-3.202,-3.2024,-3.2021,-3.2015,-3.2006,-3.2017,-3.2018,-3.2019,-3.2005,-3.2005,-3.2004,-3.2004,0,0,-3.2099,-3.2086,-3.2087,-3.2083,-3.2074,-3.2073,-3.2073,-3.2068,-3.2066,-3.2061,-3.2059,-3.2055,-3.2048,-3.2044,-3.2037,-3.2036,-3.2042,-3.2029,-3.2028,-3.203,-3.2043,-3.2047,-3.2048,-3.2037,-3.2037,-3.2037,-3.2043,0,-3.2114,-3.2115,-3.2105,-3.2108,-3.2106,-3.2093,-3.2092,-3.2086,-3.2079,-3.2075,-3.2067,-3.2063,-3.2055,-3.2052,-3.2051,-3.2042,-3.2045,-3.2042,-3.2033,-3.2033,-3.2035,-3.205,-3.2055,-3.2061,-3.2044,-3.2044,-3.2044,0,-3.2132,-3.2128,-3.213,-3.2118,-3.2117,-3.2117,-3.2109,-3.2107,-3.2097,-3.2092,-3.2086,-3.2077,-3.2074,-3.2066,-3.206,-3.2058,-3.2054,-3.2048,-3.2048,-3.2047,-3.2039,-3.2047,-3.2063,-3.2063,-3.2045,-3.2045,-3.2045,0,-3.2151,-3.2146,-3.2145,-3.2142,-3.2129,-3.2129,-3.2123,-3.2113,-3.211,-3.2102,-3.2099,-3.2092,-3.2087,-3.2081,-3.2069,-3.2065,-3.2063,-3.2055,-3.2057,-3.2057,-3.2057,-3.2057,-3.2071,-3.2056,-3.2056,-3.2056,-3.2056,0,-3.2168,-3.217,-3.2153,-3.2153,-3.2153,-3.2141,-3.2141,-3.2133,-3.2124,-3.2121,-3.2109,-3.2106,-3.2091,-3.2085,-3.2075,-3.207,-3.2069,-3.2063,-3.206,-3.2063,-3.2064,-3.206,-3.2059,-3.2056,-3.2056,-3.2056,-3.2056,0,-3.219,-3.218,-3.2178,-3.2165,-3.2161,-3.2161,-3.2149,-3.2147,-3.2138,-3.2134,-3.2132,-3.2118,-3.211,-3.2097,-3.2086,-3.208,-3.2076,-3.2072,-3.2079,-3.2077,-3.2079,-3.2078,-3.2091,-3.2091,-3.2077,-3.2077,-3.2077,0,-3.2201,-3.2201,-3.2188,-3.2185,-3.2179,-3.2175,-3.217,-3.2157,-3.2153,-3.2141,-3.2139,-3.2131,-3.2123,-3.2111,-3.2099,-3.2089,-3.2085,-3.2089,-3.2083,-3.2085,-3.2083,-3.2082,-3.2081,-3.2091,-3.2091,-3.2091,-3.2091,0,-3.2221,-3.2215,-3.2209,-3.2201,-3.2196,-3.2189,-3.2181,-3.2179,-3.2164,-3.2159,-3.2151,-3.2145,-3.2133,-3.2123,-3.2112,-3.2104,-3.2094,-3.2093,-3.2093,-3.2096,-3.2099,-3.2096,-3.2082,-3.2093,-3.2093,-3.2093,-3.2093,-3.2092,-3.2236,-3.2234,-3.2224,-3.2217,-3.221,-3.2202,-3.2199,-3.2189,-3.2182,-3.2172,-3.2164,-3.2156,-3.2143,-3.2127,-3.2119,-3.2112,-3.2108,-3.2107,-3.2107,-3.2107,-3.2108,-3.2101,-3.211,-3.2109,-3.2109,-3.2109,-3.2109,0,-3.2253,-3.2245,-3.2239,-3.2228,-3.2222,-3.2214,-3.2204,-3.2199,-3.2192,-3.2182,-3.2175,-3.2164,-3.2154,-3.2141,-3.2129,-3.2126,-3.2121,-3.2123,-3.2123,-3.2121,-3.2113,-3.2113,-3.2127,-3.2127,-3.2127,-3.2127,-3.2127,-3.2127,-3.2261,-3.2257,-3.225,-3.2241,-3.2233,-3.2225,-3.222,-3.2212,-3.2204,-3.2192,-3.2184,-3.2175,-3.2163,-3.215,-3.214,-3.2136,-3.2132,-3.2136,-3.213,-3.2123,-3.2121,-3.212,-3.212,-3.2135,-3.2135,-3.2138,-3.2139,-3.2139]},{"header":{"parameterUnit":"m.s-1","parameterCategory":1,"la1":30.2991,"la2":30.254,"lo1":-89.0895,"lo2":-89.0444,"dy":0.0017,"dx":0.0017,"nx":28,"ny":28,"refTime":"2025-01-24T09:00:00:Z","depth":0,"parameterNumber":3,"parameterNumberName":"V-component_of_WINDS"},"data":[0,0,0,0,0,0,0,0,0,0,0,0,0,0,0,0,0,0,0,0,0,0,0,0,0,0,0,0,0,0,0,0,0,0,0,0,0,0,0,0,0,0,0,0,0,0,0,0,0,0,0,0,0,0,0,0,0,0,0.3165,0.3166,0,0.3287,0.3288,0.3289,0.3262,0.326,0.3258,0.3255,0.3383,0.3388,0.3394,0,0,0,0,0,0,0,0,0,0,0,0,0,0.2914,0.2919,0.3165,0.3166,0.3168,0.3286,0.3288,0.329,0.3263,0.326,0.3257,0.3254,0.3381,0.3387,0.3394,0,0,0,0,0,0,0,0,0,0,0,0,0,0.3028,0.292,0.3165,0.3169,0.317,0.3286,0.3288,0.329,0.3263,0.326,0.3256,0.3253,0.3379,0.3387,0.3395,0.3515,0,0,0.342,0.3424,0,0,0,0,0,0,0,0,0.3022,0.3037,0.3166,0.3169,0.317,0.3256,0.3246,0.3366,0.3264,0.3228,0.3255,0.3251,0.3343,0.3354,0.3385,0.3521,0.3527,0.3421,0.3426,0.343,0.3432,0,0,0,0,0,0,0,0.3014,0.3032,0.3213,0.3168,0.3171,0.3166,0.3178,0.3269,0.3304,0.3231,0.3229,0.3244,0.3344,0.3377,0.3388,0.3528,0.3421,0.3428,0.3433,0.3437,0.3775,0.3779,0,0,0,0,0,0,0.3004,0.3026,0.3209,0.3217,0.3086,0.3173,0.3187,0.3232,0.3303,0.331,0.3247,0.3242,0.3364,0.3378,0.3392,0.3542,0.343,0.3437,0.3442,0.3772,0.3776,0.3781,0,0,0,0,0,0,0.2998,0.302,0.3204,0.3121,0.3144,0.3181,0.3232,0.3236,0.3269,0.3314,0.3321,0.3274,0.3362,0.338,0.3486,0.3546,0.3441,0.3449,0.3767,0.3773,0.3779,0.384,0,0,0,0,0,0,0.2991,0.3018,0.3063,0.3122,0.3148,0.3295,0.3235,0.3241,0.3283,0.3278,0.3342,0.3349,0.3361,0.3474,0.3494,0.3555,0.3455,0.3762,0.377,0.3777,0.3833,0.3848,0.386,0,0,0,0,0,0.2982,0.3075,0.3066,0.3088,0.3205,0.3298,0.3314,0.3325,0.3288,0.3335,0.3365,0.3347,0.3535,0.3485,0.3508,0.3572,0.3758,0.3767,0.3776,0.3827,0.3845,0.386,0,0,0,0,0,0,0.3022,0.3083,0.3073,0.3187,0.3238,0.3293,0.3352,0.3342,0.3405,0.3398,0.341,0.3425,0.3534,0.3563,0.3505,0.3695,0.3642,0.3656,0.3673,0.369,0.3703,0.3696,0.3462,0,0,0,0,0,0.3044,0.3114,0.3163,0.3259,0.3285,0.3315,0.3356,0.336,0.3414,0.3435,0.3472,0.3526,0.3598,0.3645,0.3712,0.3836,0.3852,0.3892,0.3905,0.3916,0.393,0.4003,0.4022,0.381,0.381,0.381,0,0,0.3091,0.3132,0.3176,0.3269,0.3308,0.3383,0.3333,0.3412,0.3469,0.3447,0.3551,0.358,0.3641,0.3757,0.381,0.3785,0.3991,0.3928,0.3936,0.3944,0.4014,0.4034,0.4052,0.3817,0.3816,0.3815,0,0,0.3215,0.3251,0.3338,0.3379,0.344,0.346,0.348,0.3538,0.3558,0.3661,0.3648,0.3715,0.3837,0.3883,0.3922,0.4066,0.4054,0.4088,0.416,0.423,0.4247,0.4262,0.4319,0.4338,0.41,0.41,0.41,0,0.3265,0.3375,0.3383,0.3466,0.3509,0.3493,0.3583,0.3623,0.3703,0.3735,0.3704,0.386,0.39,0.4029,0.4065,0.4095,0.4123,0.4082,0.4244,0.4259,0.4273,0.4327,0.4348,0.4104,0.4104,0.4103,0.4103,0,0.3437,0.3514,0.3576,0.3656,0.3706,0.3791,0.3815,0.3864,0.3865,0.3888,0.3997,0.4043,0.4123,0.4153,0.4154,0.4285,0.4268,0.424,0.4188,0.4297,0.4349,0.4369,0.411,0.4108,0.4107,0.4106,0,0,0.359,0.3674,0.3698,0.3736,0.3803,0.3864,0.395,0.4028,0.4073,0.4128,0.4204,0.4309,0.4286,0.433,0.4336,0.4397,0.4516,0.4364,0.4365,0.4395,0.4668,0.4692,0.4715,0.4506,0.451,0.4513,0.4665,0,0.3724,0.3875,0.3887,0.4024,0.4098,0.4085,0.4161,0.4212,0.4237,0.4304,0.4331,0.4408,0.4368,0.4396,0.4456,0.4488,0.4571,0.4477,0.4581,0.4584,0.457,0.4741,0.4765,0.4906,0.4684,0.4688,0.469,0,0.39,0.3963,0.4109,0.417,0.4201,0.4269,0.4344,0.4407,0.4466,0.448,0.4531,0.4529,0.4621,0.4562,0.4692,0.4627,0.467,0.4693,0.4699,0.4712,0.4647,0.4764,0.495,0.4974,0.4721,0.4718,0.4716,0,0.4004,0.4124,0.4228,0.426,0.4333,0.4382,0.4415,0.447,0.4517,0.4583,0.4615,0.4689,0.4732,0.4791,0.4811,0.4765,0.4941,0.4883,0.4959,0.4959,0.4999,0.4997,0.52,0.5019,0.5019,0.5018,0.5018,0,0.4154,0.4245,0.4277,0.4341,0.4444,0.4456,0.4558,0.4588,0.4638,0.4711,0.4702,0.4771,0.479,0.4863,0.4879,0.4987,0.5004,0.5021,0.5025,0.5025,0.5023,0.5056,0.5049,0.5024,0.5023,0.5022,0.5021,0,0.4289,0.4313,0.4426,0.4486,0.4504,0.4577,0.463,0.4693,0.4716,0.4809,0.4831,0.4869,0.4954,0.4979,0.5081,0.5092,0.522,0.5212,0.52,0.5202,0.5279,0.5273,0.5514,0.5548,0.534,0.5342,0.5343,0,0.4386,0.4456,0.4524,0.4571,0.4607,0.4683,0.4732,0.4747,0.4799,0.4874,0.493,0.5014,0.5082,0.522,0.5258,0.5337,0.5335,0.5414,0.5347,0.5346,0.5343,0.534,0.535,0.5428,0.543,0.5432,0.5433,0,0.4557,0.4566,0.4636,0.4713,0.4772,0.4832,0.489,0.493,0.4955,0.5014,0.5101,0.5155,0.526,0.5346,0.5427,0.5462,0.5455,0.5453,0.5476,0.5479,0.5471,0.5482,0.524,0.5449,0.5447,0.5446,0.5445,0.5444,0.4679,0.4743,0.4802,0.4882,0.4927,0.4983,0.5047,0.5079,0.5152,0.524,0.5244,0.5341,0.5401,0.5509,0.555,0.5627,0.5604,0.5636,0.5645,0.5654,0.5663,0.5455,0.5641,0.564,0.564,0.564,0.5639,0,0.4855,0.4892,0.4966,0.5049,0.5113,0.5097,0.5161,0.5217,0.5302,0.5358,0.5427,0.553,0.5613,0.5658,0.5742,0.5796,0.5794,0.5818,0.5817,0.5826,0.5675,0.565,0.5818,0.5818,0.5818,0.5818,0.5818,0.5818,0.4954,0.5062,0.5079,0.5211,0.5248,0.5343,0.5382,0.5435,0.548,0.5596,0.5665,0.5693,0.5747,0.5836,0.5913,0.5924,0.5958,0.5985,0.5995,0.5854,0.5836,0.5819,0.5795,0.5991,0.5991,0.6139,0.6141,0.6142]}]]